Погода в Лубане

Латвия     56°53′48″N   26°43′35″E
темп.,
°C
ветер,
м/с
пор.,
м/с
влажн.,
%
обл.,
%
осадки,
мм/ч
давл.,
гПа
погр.,
м
7 марта, вс
вс723:000зюз81683100 0.0 10031228
02:000зюз71596100 0.4 10001268
05:00−2сз51180100 2.6 9991645
08:00−3зюз477699 2.6 997926
11:00−1зсз91650100 1.9 9972482
14:000зсз8154287 1.9 9982210
17:00−2зсз61360100 0.1 9981702
20:00−3зсз61279100 0.1 9991317
8 марта, пн
пн823:00−4сз4984100 0.1 1001899
02:00−4с478799 0.3 1003693
05:00−7ссз5108356 0.0 1006744
08:00−7ссз597678 0.1 1009984
11:00−6с4767100 0.1 1012929
14:00−5ссз4665100 0.1 10141004
17:00−5ссз366899 0.0 1015937
20:00−7с387997 0.0 1018521
9 марта, вт
вт923:00−9с25880 0.0 1019243
02:00−10ссз13880 0.0 1020123
05:00−10сз11865 0.0 102021
08:00−9юз127543 0.0 1021126
11:00−5юз245698 0.0 1020601
14:00−2юз465399 0.0 1019923
17:00−2зюз4757100 0.0 10181028
20:00−3юз41165100 0.0 1018573
10 марта, ср
ср1023:00−3зюз41173100 0.0 1017598
02:00−3зюз4979100 0.0 1017542
05:00−4юз3883100 0.0 1017459
08:00−3зюз2393100 1.2 1019239
11:00−3всв3486100 0.9 1020318
14:00−4всв4685100 1.4 1020422
17:00−5св4788100 0.3 1020466
20:00−6св378999 0.6 1020423
11 марта, чт
чт1123:00−7всв3691100 0.1 1021396
02:00−9св2593100 0.1 1021272
05:00−11в2494100 0.0 1020225
08:00−10юв128998 0.1 1019188
11:00−4ююв357474 0.0 1017405
14:00−1ю586862 0.0 10141018
17:00−1ююв41070100 0.0 1011921
20:00−1ю71466100 0.0 10071021